GEFSMA_con_probscp_186.txt.gz
Probability
8 7 6 5 4 3 3 3 3 3 3 3 3 3 3 2 1 0 0 0 0 0 0 0 0 0 0 0 0 0 0 0 0 0 0 0 0 0 0 0 0 0 0
7 6 5 5 4 3 3 3 3 3 3 3 3 3 3 3 2 1 0 0 0 1 1 0 0 0 0 0 0 0 0 0 0 1 1 1 1 1 1 1 1 1 1
8 6 4 4 3 3 3 3 3 3 3 3 3 3 3 3 3 2 1 0 0 1 2 1 1 1 1 1 1 1 1 1 1 2 2 2 2 2 2 2 2 2 2
7 5 3 3 3 3 3 3 3 3 3 3 3 3 3 3 3 3 1 1 1 1 2 3 4 3 3 2 3 3 3 3 3 3 3 3 3 3 3 3 3 3 3
4 4 3 3 3 3 3 3 3 3 3 3 3 3 3 3 3 3 3 2 2 2 1 3 5 5 4 4 4 5 6 5 4 4 3 3 3 3 3 2 2 3 3
3 3 3 3 3 3 3 3 3 3 3 3 3 3 3 3 3 4 4 4 3 3 3 5 7 7 6 6 6 7 7 7 6 5 4 3 3 3 1 1 1 1 2
4 3 3 3 3 3 3 3 3 3 3 4 3 3 3 3 4 5 7 6 5 4 7 10 12 11 9 7 7 7 8 8 7 5 3 3 3 3 1 1 1 0 1
6 4 3 3 3 3 3 3 3 3 4 4 4 3 3 3 3 4 6 7 7 7 9 12 15 16 14 12 8 7 9 9 7 5 5 4 4 3 3 2 2 1 0
10 8 6 4 4 4 4 3 3 4 4 4 3 3 3 4 3 4 5 5 6 8 9 10 13 17 19 16 11 8 10 9 6 5 6 6 4 3 2 3 3 2 1
16 13 9 7 7 7 6 5 5 5 5 4 4 4 4 4 4 4 4 4 5 7 9 8 10 16 20 18 12 8 8 8 5 4 5 5 4 2 1 1 3 3 3
21 18 13 11 10 10 8 7 7 7 7 6 6 5 4 5 5 4 4 3 5 7 8 8 11 16 17 15 10 6 5 4 3 2 2 3 3 2 1 1 2 3 4
23 20 17 15 13 11 10 9 10 9 8 7 7 6 4 5 6 5 4 3 5 7 7 8 11 14 14 11 7 4 3 2 1 1 0 1 2 3 2 2 1 2 3
19 19 19 20 17 13 10 10 11 11 10 9 8 6 6 6 6 6 5 4 4 5 6 6 7 10 11 10 6 3 1 0 0 0 0 0 1 2 2 1 0 0 1
16 18 20 21 19 15 12 11 12 12 12 10 7 7 8 8 7 6 5 4 3 3 4 4 4 6 9 10 7 4 2 1 0 0 0 0 0 1 1 0 0 0 0
15 17 18 17 17 18 16 15 14 12 12 10 7 6 8 8 7 6 6 4 2 1 1 1 3 6 9 9 6 6 6 3 0 0 0 0 0 0 0 0 0 0 0
17 16 14 14 16 19 20 19 17 14 12 10 8 7 7 7 6 6 7 5 4 3 2 2 4 8 10 9 7 8 9 5 1 0 0 0 0 0 0 0 0 0 0
19 18 16 15 15 17 19 19 18 16 14 13 12 10 8 7 7 8 8 8 9 8 5 5 7 10 12 11 10 10 9 5 1 0 0 0 0 0 0 0 0 0 0
18 19 19 17 15 14 15 17 16 16 16 17 16 13 10 9 11 12 11 11 12 11 8 7 9 11 12 14 13 11 8 4 2 0 0 0 0 0 0 0 0 0 0
17 17 17 15 14 13 14 14 14 14 15 16 16 14 12 12 13 14 13 12 12 10 9 8 9 9 11 13 14 11 7 4 2 0 0 0 0 0 0 0 0 0 0
18 17 14 12 12 13 13 13 12 12 13 13 14 14 12 12 12 13 12 12 11 10 8 8 8 8 8 9 9 8 6 4 2 1 0 0 0 0 0 0 0 0 0
22 19 14 11 12 11 9 8 8 8 10 11 12 12 10 8 8 8 8 9 9 8 7 7 8 8 7 6 6 5 4 3 2 1 0 0 0 1 1 0 0 0 0
24 20 15 12 11 7 4 3 4 6 8 10 11 10 7 5 5 5 5 5 5 6 6 7 8 8 7 6 5 4 3 1 1 1 0 0 0 1 2 1 0 0 0
25 23 19 15 10 5 1 0 2 4 6 7 7 7 5 3 4 5 4 4 4 4 5 5 7 8 8 7 5 4 2 1 0 0 0 0 0 1 2 1 1 0 0
27 26 23 17 11 5 1 0 1 3 4 4 4 4 3 2 3 4 5 5 5 5 4 4 5 6 7 6 5 3 2 0 0 0 0 0 0 0 1 1 1 0 0
28 26 23 18 12 7 3 1 1 2 3 3 3 3 3 3 3 3 4 4 5 5 5 4 3 4 4 3 2 3 2 1 0 0 0 0 0 0 0 1 1 0 0
27 25 22 17 12 7 4 2 1 2 3 3 3 3 3 3 3 3 3 4 4 4 5 5 3 2 2 1 1 2 2 1 0 0 0 0 0 0 0 0 0 0 0

GEFSMA_con_probscp_192.txt.gz
Probability
3 2 1 0 0 0 0 0 0 0 0 0 0 0 0 0 0 0 1 2 2 1 0 0 0 0 0 0 0 0 0 0 0 0 0 0 0 0 0 0 0 0 0
1 1 1 0 0 0 0 0 0 0 0 0 0 0 0 0 0 0 1 2 2 1 0 0 0 0 0 0 0 0 0 0 0 0 0 0 0 0 0 0 0 0 0
0 0 0 0 0 0 0 0 0 0 0 0 0 0 0 0 0 0 0 1 1 0 0 0 1 2 2 1 0 0 1 1 0 0 0 0 0 0 0 0 0 0 0
0 0 0 0 0 0 0 0 0 0 0 0 0 0 0 0 0 0 0 0 0 0 0 1 4 6 5 3 2 1 2 2 1 0 0 0 0 0 0 0 1 1 1
1 0 0 0 0 0 0 0 0 0 0 0 0 0 0 0 0 0 0 0 0 0 0 1 5 8 8 7 5 4 4 3 2 0 0 0 0 0 0 0 1 2 2
2 1 0 0 0 0 0 0 0 0 0 0 0 0 0 0 0 0 0 0 0 0 0 1 3 5 7 8 8 8 7 5 3 2 1 0 0 0 0 0 1 2 3
2 1 0 0 0 0 0 0 0 0 0 0 0 0 0 0 0 0 0 0 0 0 0 0 0 1 3 5 7 9 9 8 6 4 3 2 1 1 1 1 1 2 3
1 0 0 0 0 0 0 0 0 0 0 0 0 0 0 0 0 0 0 0 0 0 0 0 0 0 0 1 3 6 9 9 8 6 6 5 4 3 3 2 2 3 3
2 1 1 1 0 0 0 0 0 0 0 0 0 0 0 0 0 0 0 0 0 0 0 0 1 1 0 0 0 3 7 9 8 7 6 6 6 5 4 3 3 3 3
2 2 2 1 0 0 0 0 0 0 0 0 0 0 0 0 0 0 0 0 0 0 0 0 1 1 1 0 0 1 4 6 7 6 6 6 6 6 5 4 3 3 3
2 3 3 2 1 1 1 0 0 0 0 0 0 0 0 0 0 0 0 0 0 0 0 0 1 1 1 0 0 2 3 4 5 4 4 4 5 6 5 4 3 3 3
3 4 4 3 2 2 1 0 0 0 0 0 0 0 0 0 0 0 0 0 0 0 0 0 0 0 0 0 1 3 3 3 3 3 2 3 4 5 5 4 3 3 3
2 3 4 2 1 1 1 0 0 0 0 0 0 0 0 0 0 0 0 0 0 0 0 0 0 0 0 0 1 3 3 1 1 1 1 1 2 3 3 3 3 3 3
1 2 3 2 1 0 0 0 0 0 0 0 0 0 0 0 0 0 0 0 0 0 0 0 0 0 0 0 0 1 1 0 0 0 0 0 1 1 1 1 1 2 2
1 2 3 3 1 0 0 0 0 0 0 0 0 0 0 0 0 1 1 0 0 0 0 0 0 0 0 0 0 0 0 0 0 0 0 0 0 0 0 0 0 1 1
3 3 3 2 1 0 0 0 0 0 0 0 0 0 0 0 1 2 2 1 1 0 0 0 0 0 0 0 0 0 0 0 0 0 0 0 0 0 0 0 0 0 0
4 4 4 2 1 0 0 0 0 0 0 0 0 1 1 1 2 3 3 2 1 0 0 0 0 0 0 0 0 0 0 0 0 0 0 0 0 0 0 0 0 0 0
4 5 4 2 1 1 1 1 1 1 1 1 1 2 2 3 3 3 2 1 1 0 1 1 0 1 1 0 0 0 0 0 0 0 0 0 0 0 0 0 0 0 0
3 4 3 2 2 2 2 3 3 3 2 2 3 3 3 3 2 1 1 0 0 1 2 2 2 2 2 1 0 0 0 0 0 0 0 0 0 0 0 0 0 0 0
3 4 4 3 3 3 3 4 4 4 3 3 3 3 3 2 1 0 0 0 0 1 2 3 3 3 3 1 1 1 1 1 0 0 0 0 0 0 0 0 0 0 0
5 5 4 3 3 3 3 3 4 3 3 3 3 2 1 1 0 0 0 0 0 0 1 2 2 3 3 3 2 2 2 1 0 0 0 0 0 0 0 0 0 0 0
6 6 4 3 3 3 3 3 2 2 2 2 1 1 0 0 0 0 0 0 0 0 0 1 1 1 2 2 2 2 2 1 0 0 0 0 0 0 0 0 0 0 0
6 7 6 4 3 3 3 2 1 1 1 1 0 0 0 0 0 0 0 0 0 0 0 0 0 0 1 1 1 0 1 1 0 0 0 0 0 0 0 0 0 0 0
6 7 6 4 3 3 3 2 1 0 0 0 0 0 0 0 0 0 0 0 0 0 0 0 0 0 0 0 0 0 0 1 0 0 0 0 0 0 0 0 0 0 0
7 7 6 6 5 4 4 3 1 0 0 0 1 1 0 0 0 0 0 0 1 1 1 1 0 0 0 0 0 0 0 0 0 0 0 0 0 0 0 0 0 0 0
8 6 6 7 6 5 5 4 1 0 0 1 2 2 1 0 0 0 0 1 2 2 2 2 1 0 0 0 0 0 0 0 0 0 0 0 0 0 0 0 0 0 0

GEFSMA_con_probscp_198.txt.gz
Probability
0 0 0 0 0 0 0 0 0 0 0 0 0 0 0 0 0 0 0 0 0 0 0 0 0 0 0 0 0 0 0 0 0 0 0 0 0 0 0 0 0 0 0
0 0 0 0 0 0 0 0 0 0 0 0 0 0 0 0 0 0 0 0 0 0 0 0 0 0 0 0 0 0 0 0 0 0 0 0 0 0 0 0 0 0 0
0 0 0 0 0 0 0 0 0 0 0 0 0 0 0 0 0 0 0 0 0 0 0 0 0 0 0 0 0 0 0 0 0 0 0 0 0 0 0 0 0 0 0
0 0 0 0 0 0 0 0 0 0 0 0 0 0 0 0 0 0 0 0 0 0 0 0 0 1 1 0 0 1 1 1 0 0 0 0 0 0 0 0 0 0 0
0 0 0 0 0 0 0 0 0 0 0 0 0 0 0 0 0 0 0 0 0 0 0 0 0 1 1 1 1 2 3 2 1 1 1 0 0 0 0 0 0 0 0
0 0 0 0 0 0 0 0 0 0 0 0 0 0 0 0 0 0 0 0 0 0 0 0 0 0 0 1 2 3 4 4 3 3 2 1 1 0 0 0 0 0 0
0 0 0 0 0 0 0 0 0 0 0 0 0 0 0 0 0 0 0 0 0 0 0 0 0 0 0 1 2 3 4 5 5 4 4 3 2 1 1 0 0 0 0
0 0 0 0 0 0 0 0 0 0 0 0 0 0 0 0 0 0 0 0 0 0 0 0 0 0 0 0 1 2 3 4 5 5 5 4 3 2 1 0 0 0 0
0 0 0 0 0 0 0 0 0 0 0 0 0 0 0 0 0 0 0 0 0 0 0 0 0 0 0 0 0 1 1 2 4 5 5 4 3 1 1 0 0 0 0
0 0 0 0 0 0 0 0 0 0 0 0 0 0 0 0 0 0 0 0 0 0 0 0 0 0 0 0 0 0 0 1 2 3 4 5 4 2 1 0 0 0 0
0 0 0 0 0 0 0 0 0 0 0 0 0 0 0 0 0 0 0 0 0 0 0 0 0 0 0 0 0 0 0 0 1 1 2 3 3 4 3 1 0 0 0
0 0 0 0 0 0 0 0 0 0 0 0 0 0 0 0 0 0 0 0 0 0 0 0 0 0 0 0 0 0 0 0 0 0 1 1 1 3 3 2 1 0 0
0 0 0 0 0 0 0 0 0 0 0 0 0 0 0 0 0 0 0 0 0 0 0 0 0 0 0 0 0 0 0 0 0 0 0 0 0 1 2 3 3 1 0
0 0 0 0 0 0 0 0 0 0 0 0 0 0 0 0 0 0 0 0 0 0 0 0 0 0 0 0 0 0 0 0 0 0 0 0 0 0 1 2 3 2 1
0 0 0 0 0 0 0 0 0 0 0 0 0 0 0 0 0 0 0 0 0 0 0 0 0 0 0 0 0 0 0 0 0 0 0 0 0 0 0 1 1 1 0
0 0 1 1 1 0 0 0 0 0 0 0 0 0 0 0 0 0 0 0 0 0 0 0 0 0 0 0 0 0 0 0 0 0 0 0 0 0 0 0 0 0 0
0 0 0 0 0 0 0 0 0 0 0 0 0 0 0 0 0 0 0 0 0 0 0 0 0 0 0 1 1 1 0 0 0 0 0 0 0 0 0 0 0 0 0
1 0 0 0 0 0 0 0 0 0 0 0 0 0 0 0 0 0 0 0 0 0 0 0 0 0 0 1 2 1 0 0 0 0 0 0 0 0 0 0 0 0 0
2 1 0 0 0 0 0 0 0 0 0 0 0 0 0 0 0 0 0 0 0 0 0 0 0 0 0 1 1 1 0 0 0 0 0 0 0 0 0 0 0 0 0
2 1 0 0 0 0 0 0 0 0 0 0 0 0 0 0 0 0 0 0 0 0 0 0 0 0 0 0 0 0 0 0 0 0 0 0 0 0 0 0 0 0 0
1 0 0 0 0 0 0 0 0 0 0 0 0 0 0 0 0 0 0 0 0 0 0 0 0 0 0 0 0 0 0 0 0 0 1 0 0 0 0 0 0 0 0
0 0 0 0 0 0 0 0 0 0 0 0 0 0 0 0 0 0 0 0 0 0 0 0 0 0 0 0 0 0 0 0 0 0 0 0 0 0 0 0 0 0 0
1 0 0 1 1 1 0 0 0 0 0 0 0 0 0 0 0 0 0 0 0 0 0 1 1 1 0 0 0 0 0 0 0 0 0 0 0 0 0 0 0 0 0
1 1 1 2 3 2 1 0 0 0 0 1 1 0 0 0 0 0 0 0 0 0 0 1 1 1 0 0 0 0 0 0 0 0 0 0 0 0 0 0 0 0 0
1 1 2 3 4 3 1 0 0 0 1 2 2 1 1 0 0 0 0 0 0 0 0 1 1 1 0 0 0 0 0 0 0 0 0 0 0 0 0 0 0 0 0
0 1 2 4 4 3 1 0 0 0 1 2 2 2 2 1 0 0 0 0 0 0 1 1 1 0 0 0 0 0 0 0 0 0 0 0 0 0 0 0 0 0 0

GEFSMA_con_probscp_204.txt.gz
Probability
0 0 0 0 0 0 0 0 0 0 0 0 0 0 0 0 0 1 1 1 0 0 0 0 0 0 0 0 0 0 0 0 0 0 0 0 0 0 0 0 0 0 0
0 0 0 0 0 0 0 0 0 0 0 0 0 0 0 0 0 0 0 0 0 0 0 0 0 0 0 0 0 0 0 0 0 0 0 0 0 0 0 0 0 0 0
0 0 0 0 0 0 0 0 0 0 0 0 0 0 0 0 0 0 0 0 0 0 0 0 0 0 0 0 0 0 0 0 0 0 0 0 0 0 0 0 0 0 0
0 0 0 0 0 0 0 0 0 0 0 0 0 0 0 0 0 0 0 0 0 0 0 0 1 1 0 0 0 0 1 2 1 1 1 1 0 0 0 0 0 0 0
1 0 0 0 0 0 0 0 0 0 0 0 0 0 0 0 0 0 0 0 0 0 0 0 1 1 0 0 0 0 1 2 2 2 2 2 1 0 0 0 0 0 0
2 1 0 0 0 0 0 0 0 0 0 0 0 0 0 0 0 0 0 0 0 0 0 1 1 1 1 0 0 1 1 1 2 3 3 3 2 1 0 0 0 0 0
3 2 0 0 0 1 1 0 0 0 0 0 0 0 0 0 1 0 0 0 0 0 1 2 2 2 2 2 2 3 2 1 2 3 4 5 4 2 1 0 0 0 0
2 1 0 0 1 2 2 1 0 0 0 0 0 0 0 1 3 2 0 0 1 1 1 2 3 4 5 5 5 5 4 3 3 4 5 6 7 6 4 1 0 0 0
1 0 0 0 1 2 3 2 1 0 0 0 0 1 1 1 3 3 2 2 2 2 1 1 2 4 6 8 7 6 5 6 6 5 6 7 8 8 6 4 2 0 0
0 0 0 0 1 2 3 2 1 1 1 1 1 2 2 1 2 3 3 3 3 2 1 0 1 4 6 8 8 5 5 6 6 5 5 5 6 6 6 6 5 2 1
1 1 1 1 2 3 3 3 3 4 4 3 4 4 2 1 1 1 2 2 1 1 1 1 2 5 6 7 7 4 2 2 3 3 2 3 3 3 6 8 8 5 3
2 2 3 4 5 6 6 5 6 6 6 6 6 5 4 3 3 3 2 1 0 0 1 1 2 3 5 6 6 3 0 0 1 1 1 1 1 2 6 8 8 6 5
4 4 4 5 7 7 7 7 7 7 7 7 7 7 6 4 4 5 5 2 0 0 1 1 1 1 3 5 5 2 0 0 0 0 0 0 0 1 3 5 5 4 5
4 4 4 4 5 5 5 6 7 8 9 9 8 9 9 6 5 6 7 4 1 0 0 1 2 1 2 4 4 2 1 0 0 0 0 0 0 0 0 1 1 1 2
6 6 5 4 5 5 5 8 9 10 13 14 12 11 11 9 7 8 10 9 6 3 2 4 6 5 3 3 2 2 2 1 0 0 0 0 0 0 0 0 0 0 1
11 10 8 6 7 7 8 10 11 12 12 14 13 11 10 9 9 10 12 14 13 9 6 7 9 7 5 4 3 3 4 3 2 0 0 0 0 0 0 0 0 0 0
14 13 10 8 9 10 10 10 9 8 6 8 9 8 8 9 10 11 13 15 16 14 11 11 10 8 8 7 6 5 5 4 3 1 0 0 0 0 0 0 0 0 0
13 12 11 10 11 11 11 9 7 4 3 5 5 6 7 10 11 12 14 14 14 14 14 14 13 11 10 9 8 7 5 4 3 1 0 0 0 0 0 0 0 0 0
12 11 10 10 10 10 10 8 6 4 4 5 5 6 8 12 13 13 12 11 10 11 13 14 14 13 11 10 9 7 6 5 3 1 0 0 0 0 0 0 0 0 0
12 10 9 9 10 9 8 6 4 4 5 7 6 6 8 11 12 11 9 9 9 9 10 10 11 11 11 10 9 9 8 7 4 2 0 0 0 0 0 0 0 0 0
14 13 11 10 9 8 5 2 1 3 6 8 8 7 8 9 9 7 5 6 8 8 8 8 8 9 9 9 9 9 8 7 5 3 1 1 0 0 0 0 0 0 0
17 16 13 9 7 5 2 1 1 2 4 7 9 10 9 8 7 4 2 2 4 7 8 7 6 5 6 7 8 7 6 5 4 3 3 2 1 1 1 0 0 0 0
20 18 13 10 7 4 2 1 0 1 2 5 8 11 11 9 8 5 3 2 2 3 5 5 5 4 4 4 5 4 4 3 3 3 3 2 2 2 1 0 0 0 0
24 21 16 12 9 5 2 1 0 1 3 5 7 11 12 11 8 6 5 4 3 2 3 3 3 3 3 2 3 3 3 3 3 3 2 2 1 1 1 0 0 0 0
24 22 17 13 9 5 1 0 1 3 5 6 8 9 10 8 6 3 3 4 4 3 2 1 1 1 1 1 1 2 3 3 3 3 2 2 1 1 0 0 0 0 0
23 20 16 12 9 4 1 0 1 3 6 8 9 8 7 5 3 1 1 3 4 3 1 0 0 0 1 1 1 1 3 3 2 2 3 3 2 2 1 0 0 0 0

GEFSMA_con_probscp_210.txt.gz
Probability
3 3 3 2 1 0 0 0 0 0 0 0 0 0 0 0 0 0 0 0 1 0 0 1 1 1 1 0 0 0 0 1 1 0 0 0 0 0 0 0 0 0 0
4 4 3 2 1 0 1 1 0 0 0 0 0 0 0 0 0 0 0 0 1 1 1 2 3 3 3 2 1 1 1 1 2 1 1 0 0 0 0 0 0 0 0
6 5 3 2 1 1 1 2 1 0 0 0 0 0 0 0 0 0 0 0 0 1 2 4 5 6 6 4 4 4 3 3 3 2 1 0 0 0 0 0 0 0 0
8 6 3 2 2 1 1 2 1 0 0 0 0 0 0 0 0 0 0 0 1 2 4 7 8 8 8 7 6 6 6 5 4 3 2 1 1 1 0 0 0 0 0
8 7 5 3 3 2 1 1 2 1 1 1 0 0 0 1 1 1 0 1 2 2 4 8 10 10 8 9 8 8 7 7 7 6 4 3 2 2 1 0 0 0 0
10 9 7 5 4 4 4 4 4 3 3 2 1 1 1 1 2 1 1 1 2 2 4 9 12 11 10 12 12 11 10 10 11 12 9 7 5 3 2 0 0 0 0
11 10 8 7 6 7 8 8 6 4 3 3 2 2 2 2 3 2 1 1 2 3 6 11 14 14 15 15 15 15 14 14 15 16 14 13 10 6 2 1 1 0 0
10 9 9 9 8 9 9 8 7 5 4 3 3 1 1 2 4 2 2 3 4 5 7 10 14 18 19 18 16 16 15 15 16 16 16 15 13 9 6 5 3 2 1
9 8 8 9 9 9 8 6 5 5 4 3 3 2 1 1 2 1 2 3 5 5 7 8 11 17 19 17 16 14 12 13 14 15 14 13 12 10 9 8 7 4 3
12 10 9 9 11 11 10 7 5 6 5 4 3 3 2 1 1 0 1 2 3 5 6 7 9 13 16 16 14 12 9 9 11 12 12 10 9 8 8 9 8 6 5
14 13 12 13 15 14 12 10 9 9 9 6 4 4 4 3 1 1 1 1 2 3 4 7 10 13 16 16 13 10 7 7 7 8 9 9 8 6 5 6 7 6 5
16 14 13 14 16 15 14 14 13 13 12 9 7 7 6 5 4 3 2 1 1 2 5 9 13 15 16 15 13 10 7 5 3 3 4 6 7 6 4 4 5 5 5
17 16 14 13 13 12 13 15 15 14 15 13 10 9 9 9 7 6 3 2 2 3 6 12 15 18 18 16 14 11 8 4 1 0 1 2 4 4 3 3 3 4 4
15 16 15 13 10 7 8 11 14 15 18 18 13 10 12 11 10 8 5 3 3 2 5 11 17 20 20 16 12 11 9 4 0 0 0 0 1 1 1 1 2 2 3
15 17 16 14 10 5 4 8 13 16 19 19 14 12 13 13 10 9 7 6 5 3 4 9 16 18 16 12 9 10 9 5 1 0 0 0 0 0 0 0 0 1 1
19 18 17 16 12 8 7 9 12 15 17 18 14 13 13 12 9 7 8 8 8 6 5 9 13 13 10 9 9 10 9 5 2 1 0 0 0 0 0 0 0 0 0
22 19 17 16 14 11 10 11 11 13 15 15 14 14 12 9 7 7 8 9 9 9 8 10 11 9 8 9 9 10 9 6 3 1 0 0 0 0 0 0 0 0 0
22 20 17 16 15 13 13 13 12 12 12 12 13 13 11 7 7 9 8 7 7 8 8 10 10 9 9 9 9 9 9 7 5 2 0 0 0 0 0 0 0 0 0
20 19 18 18 17 16 15 15 14 12 11 11 11 11 10 8 8 10 9 7 6 6 8 10 10 9 9 8 7 6 7 7 5 2 0 0 0 0 0 0 0 0 0
19 19 21 22 21 18 16 14 14 13 12 11 10 9 8 8 8 9 8 7 7 7 8 10 11 10 8 7 5 3 4 5 4 2 1 1 0 0 0 0 0 0 0
23 24 25 25 22 17 13 11 11 11 11 10 9 8 7 6 6 6 5 5 6 9 10 11 11 10 8 6 4 2 1 2 3 2 2 2 1 1 1 0 0 0 0
30 29 28 26 21 13 7 5 6 9 9 7 7 6 5 3 3 4 3 2 3 6 9 10 10 10 8 6 3 1 0 1 1 3 3 3 2 2 2 1 0 0 0
36 33 30 27 21 11 4 1 3 6 7 6 4 5 4 3 2 3 3 2 2 3 5 6 7 8 7 5 2 0 0 0 1 2 2 2 2 2 2 2 1 0 0
39 36 32 27 20 11 3 0 1 4 6 6 5 5 5 5 3 3 4 5 4 3 2 2 3 4 3 2 1 0 0 0 0 1 1 0 0 0 1 1 1 0 0
38 35 30 24 18 10 3 0 1 4 6 7 6 5 5 5 4 3 4 6 6 4 1 0 1 1 0 0 0 0 0 0 0 0 0 0 0 0 0 0 0 0 0
36 33 27 22 17 9 2 0 1 4 7 7 6 5 5 4 4 3 4 5 5 3 1 0 0 0 0 0 0 0 0 0 0 0 0 0 0 0 0 0 0 0 0

GEFSMA_con_probscp_216.txt.gz
Probability
0 0 0 0 0 0 0 0 0 0 0 0 0 0 0 0 0 0 0 0 1 3 5 6 4 2 1 0 0 0 0 0 1 1 0 0 0 0 0 0 0 0 0
0 0 0 0 0 0 0 0 0 0 0 0 0 0 0 0 0 0 0 0 1 3 5 6 5 4 3 1 1 1 1 2 3 2 1 0 0 0 0 0 0 0 0
0 0 0 0 0 0 0 0 0 0 0 0 0 0 0 0 0 0 0 0 0 2 3 5 5 5 4 3 2 2 3 4 5 5 2 1 1 0 0 0 0 0 0
1 0 0 0 0 0 0 0 0 0 0 0 0 0 0 0 0 0 0 0 0 0 1 2 3 3 3 3 4 3 4 5 6 6 5 3 2 1 0 0 0 0 0
2 1 0 0 0 0 0 0 0 0 0 0 0 0 0 0 0 0 0 0 0 0 0 0 1 1 2 4 5 5 4 5 7 7 7 5 3 2 0 0 0 0 0
2 1 1 0 0 0 0 0 0 0 0 0 0 0 0 0 0 0 0 0 0 0 0 0 0 1 3 6 7 7 6 6 8 9 8 7 5 3 1 1 0 0 0
3 3 2 1 0 0 0 0 0 0 0 0 0 0 0 0 0 0 0 0 0 0 0 0 0 0 2 5 8 8 8 7 8 9 9 8 7 4 2 1 1 1 1
3 3 2 1 0 0 0 0 0 0 0 0 0 0 0 0 0 0 0 0 0 0 0 0 0 0 0 2 5 8 8 7 6 7 9 9 8 5 3 2 2 2 2
3 3 2 0 0 0 0 0 0 0 1 0 0 0 0 0 0 0 0 0 0 0 0 0 0 0 0 1 2 5 6 6 7 8 9 10 8 5 4 4 4 3 2
3 3 2 1 0 0 0 0 0 0 0 0 0 0 0 0 0 0 0 0 0 0 0 0 0 0 0 0 1 2 3 6 8 8 9 9 7 5 4 5 4 3 1
4 4 3 2 0 0 0 0 0 0 0 0 0 0 0 0 0 0 0 0 0 0 0 0 0 0 0 0 0 0 2 4 5 6 7 7 6 3 2 2 2 2 1
4 5 5 4 1 0 0 0 0 0 0 0 0 0 0 0 0 0 0 0 0 0 0 0 0 0 0 0 0 0 1 1 1 2 3 4 4 2 1 1 0 0 0
4 5 5 3 2 0 0 0 0 0 0 0 0 0 0 0 0 0 0 0 0 0 0 0 0 0 0 0 0 0 0 0 0 0 0 1 1 2 2 1 0 0 0
4 3 3 1 1 0 0 0 0 0 0 0 0 0 0 0 0 0 0 0 0 0 0 0 0 0 0 0 0 0 0 0 0 0 0 0 0 1 1 1 0 0 0
4 2 1 1 1 1 1 0 0 0 0 0 0 0 0 0 0 0 0 0 0 0 0 0 0 0 0 0 0 0 0 0 0 0 0 0 0 0 0 0 0 0 0
4 3 3 3 3 3 2 1 0 0 0 0 0 0 0 0 0 0 0 0 0 0 0 0 0 0 0 0 0 0 0 0 0 0 0 0 0 0 0 0 0 0 0
6 5 4 4 5 4 2 1 0 0 0 0 0 0 0 0 0 0 0 0 0 0 0 0 0 0 0 0 0 0 0 0 0 0 0 0 0 0 0 0 0 0 0
6 6 5 5 5 3 1 0 0 0 0 0 0 0 0 0 0 0 0 0 0 0 0 0 0 0 0 0 0 0 0 0 0 0 0 0 0 0 0 0 0 0 0
7 6 5 5 4 3 1 0 0 0 0 0 0 0 0 0 0 0 0 0 0 0 0 0 0 0 0 0 0 0 0 0 0 0 0 0 0 0 0 0 0 0 0
8 7 5 4 3 3 2 1 0 0 0 0 0 0 0 0 0 0 0 0 0 0 0 0 0 0 0 0 0 0 0 0 0 0 0 0 0 0 0 0 0 0 0
9 8 6 4 4 3 2 1 0 0 0 0 0 0 0 0 0 0 0 0 0 0 0 0 0 0 0 0 0 0 0 0 0 0 0 0 0 0 0 0 0 0 0
9 8 6 5 4 3 1 0 0 0 0 0 0 0 0 0 0 0 0 0 0 0 0 0 0 0 0 0 0 0 0 0 0 0 0 0 0 0 0 0 0 0 0
9 9 8 6 4 1 0 0 0 0 0 0 0 0 0 0 0 0 0 0 0 0 0 0 0 0 0 0 0 0 0 0 0 0 0 0 0 0 0 0 0 0 0
11 11 9 7 4 1 0 0 0 0 0 0 0 0 0 0 0 0 0 0 0 0 0 0 0 0 0 0 0 0 0 0 0 0 0 0 0 0 0 0 0 0 0
14 12 9 7 5 2 1 0 0 0 0 0 0 0 0 0 0 0 0 0 0 0 0 0 0 0 0 0 0 0 0 0 0 0 0 0 0 0 0 0 0 0 0
14 12 9 7 5 3 2 1 0 0 0 0 0 0 0 0 0 0 0 0 0 0 0 0 0 0 0 0 0 0 0 0 0 0 0 0 0 0 0 0 0 0 0

GEFSMA_con_probscp_222.txt.gz
Probability
0 0 0 0 0 0 0 0 0 0 0 0 0 0 0 0 0 0 0 0 0 0 0 1 2 2 2 1 0 1 2 3 3 2 1 0 0 0 0 0 0 0 0
0 0 0 0 0 0 0 0 0 0 0 0 0 0 0 0 0 0 0 0 0 0 0 0 1 1 1 1 1 1 3 3 3 3 2 1 0 0 0 0 0 0 0
0 0 0 0 0 0 0 0 0 0 0 0 0 0 0 0 0 0 0 0 0 0 0 0 0 0 0 0 1 2 4 4 3 3 3 2 1 0 0 0 0 0 0
0 0 0 0 0 0 0 0 0 0 0 0 0 0 0 0 0 0 0 0 0 0 0 0 0 0 1 1 1 2 3 3 4 4 4 3 1 0 0 0 0 0 0
0 0 0 0 0 0 0 0 0 0 0 0 0 0 0 0 0 0 0 0 0 0 0 0 0 0 1 2 3 2 2 4 5 5 6 5 4 2 0 0 0 0 0
1 0 0 0 0 0 0 0 0 0 0 0 0 0 0 0 0 0 0 0 0 0 0 0 0 0 1 1 2 3 3 4 5 6 7 7 6 3 1 0 0 0 0
2 1 0 0 0 0 0 0 0 0 0 0 0 0 0 0 0 0 0 0 0 0 0 0 0 0 0 0 1 3 4 5 6 7 7 8 6 4 2 0 0 0 0
2 1 0 0 0 0 0 0 0 0 0 0 0 0 0 0 0 0 0 0 0 0 0 0 0 0 0 0 1 3 4 4 6 7 7 7 6 5 4 2 1 0 0
2 1 0 0 0 0 0 0 0 0 0 0 0 0 0 0 0 0 0 0 0 0 0 0 0 0 0 0 1 2 3 3 4 5 6 6 6 7 6 4 2 1 1
3 2 1 0 0 0 0 0 0 0 0 0 0 0 0 0 0 0 0 0 0 0 0 0 0 0 0 1 0 0 1 2 3 4 5 7 8 8 7 5 2 2 2
3 3 1 0 0 0 0 0 0 0 0 0 0 0 0 0 0 0 0 0 0 0 0 0 0 0 0 0 0 0 0 1 2 3 4 6 8 9 9 7 4 2 2
3 3 2 1 0 0 0 0 0 0 0 0 0 0 0 0 0 0 0 0 0 0 0 0 0 0 0 0 0 0 0 0 1 1 1 3 5 7 8 7 5 3 2
3 3 2 1 0 0 0 0 0 0 0 0 0 0 0 0 0 0 0 0 0 0 0 0 0 0 0 0 0 0 0 0 0 0 0 1 1 3 4 4 4 3 2
3 2 2 1 0 0 0 0 0 0 0 0 0 0 0 0 0 0 0 0 0 0 0 0 0 0 0 0 0 0 0 0 0 0 0 0 0 1 1 1 1 2 2
3 3 2 1 0 0 0 0 0 0 0 0 0 0 0 0 0 0 0 0 0 0 0 0 0 0 0 0 0 0 0 0 0 0 0 0 0 0 0 0 0 1 1
3 3 2 1 0 0 0 0 0 0 0 0 0 0 0 0 0 0 0 0 0 0 0 0 0 0 0 0 0 0 0 0 0 0 0 0 0 0 0 0 0 0 0
3 3 2 1 0 0 0 0 0 0 0 0 0 0 0 0 0 0 0 0 0 0 0 0 0 0 0 0 0 0 0 0 0 0 0 0 0 0 0 0 0 0 0
3 3 2 1 0 0 0 0 0 0 0 0 0 0 0 0 0 0 0 0 0 0 0 0 0 0 0 0 0 0 0 0 0 0 0 0 0 0 0 0 0 0 0
4 4 3 1 0 0 0 0 0 0 0 0 0 0 0 0 0 0 0 0 0 0 0 0 0 0 0 0 0 0 0 0 0 0 0 0 0 0 0 0 0 0 0
6 5 4 2 1 0 0 0 0 0 0 0 0 0 0 0 0 0 0 0 0 0 0 0 0 0 0 0 0 0 0 0 0 0 0 0 0 0 0 0 0 0 0
5 5 4 3 1 0 0 0 0 0 0 0 0 0 0 0 0 0 0 0 0 0 0 0 0 0 0 0 0 0 0 0 0 0 0 0 0 0 0 0 0 0 0
2 3 3 3 2 1 0 0 0 0 0 0 0 0 0 0 0 0 0 0 0 0 0 0 1 1 2 1 0 0 0 0 0 0 0 0 0 0 0 0 0 0 0
0 1 1 3 3 2 0 0 0 0 0 0 0 0 0 0 0 0 0 0 0 0 0 1 2 3 3 2 1 0 0 0 0 0 0 0 0 0 0 0 0 0 0
0 0 0 1 1 1 0 0 0 0 0 0 0 0 0 0 0 0 0 0 0 0 0 1 2 2 2 2 1 0 0 0 0 0 0 0 0 0 0 0 0 0 0
1 1 1 1 1 1 1 0 0 1 1 0 0 0 0 0 0 0 0 0 0 0 0 0 1 1 1 1 0 0 0 0 0 0 0 0 0 0 0 0 0 0 0
2 2 2 2 3 3 2 1 1 2 2 1 0 0 0 0 0 0 0 0 0 0 0 0 0 0 0 0 0 0 0 0 0 0 0 0 0 0 0 0 0 0 0

GEFSMA_con_probscp_228.txt.gz
Probability
1 2 3 3 1 0 0 0 0 0 1 0 0 0 1 2 1 0 1 1 1 0 0 0 0 0 1 0 0 0 1 1 1 0 0 0 0 0 0 0 0 0 0
2 3 3 3 2 1 0 0 0 1 2 1 0 1 2 2 1 0 0 0 0 0 0 0 0 1 1 1 1 1 2 2 1 0 0 0 0 1 1 0 0 0 0
3 3 3 3 3 2 1 1 1 1 3 2 0 1 2 2 1 0 0 1 1 0 0 0 1 1 2 2 2 2 3 2 1 0 1 1 1 2 1 0 0 0 0
2 3 3 3 2 2 1 1 1 2 3 2 1 1 1 1 1 1 1 2 2 1 1 1 2 2 1 1 2 3 4 3 2 2 2 2 2 2 2 0 0 0 0
1 1 2 1 1 1 1 1 1 2 2 1 1 0 0 0 1 1 2 3 3 3 2 2 2 2 1 1 2 2 2 3 3 4 4 4 3 2 2 1 0 0 0
1 0 0 0 1 2 1 0 0 1 1 1 1 0 0 0 1 2 3 3 3 3 3 3 3 3 2 2 3 3 2 3 4 4 5 5 4 3 2 1 0 0 0
2 1 0 0 2 2 1 0 0 0 0 0 1 1 1 1 2 2 3 3 4 4 3 3 4 6 6 5 5 6 6 5 4 4 5 6 6 5 3 2 1 0 0
3 2 0 0 1 1 1 1 2 2 1 1 2 2 2 2 2 2 2 3 4 5 4 3 5 6 7 7 6 7 8 6 5 4 5 6 6 7 7 5 2 1 1
6 4 1 0 0 1 1 2 3 4 3 4 5 5 3 3 2 2 3 3 3 4 3 3 3 4 6 8 8 6 6 5 4 3 3 4 5 7 9 8 5 3 3
9 6 2 1 1 1 2 3 4 5 5 6 7 7 6 5 4 4 4 3 3 3 3 3 4 5 6 9 9 5 2 2 3 3 3 3 3 6 7 7 7 6 4
9 8 5 4 4 4 4 4 4 5 6 7 7 8 7 7 7 6 5 4 4 4 3 4 6 8 9 12 11 5 1 0 1 3 3 2 2 4 5 6 7 7 6
10 9 8 6 5 5 5 5 5 4 4 5 6 6 6 7 7 6 4 3 4 5 6 6 7 9 12 14 11 5 1 0 0 1 2 1 1 3 5 5 6 8 8
11 11 10 8 7 6 6 6 6 3 2 2 3 4 4 5 5 4 3 2 3 3 5 6 6 8 11 14 11 4 1 0 0 0 0 0 0 1 3 5 6 7 8
12 12 11 9 7 6 6 7 6 3 1 1 2 3 3 3 3 2 2 2 2 2 2 4 6 7 11 12 8 3 1 1 0 0 0 0 0 0 1 3 3 4 5
11 12 13 11 9 8 7 7 6 6 5 4 3 5 5 4 5 4 4 4 3 1 1 2 5 8 9 8 5 2 2 1 0 0 0 0 0 0 0 1 1 1 1
12 13 14 14 12 10 8 8 7 8 8 7 6 7 6 6 7 6 5 4 4 3 2 2 4 6 7 5 2 1 1 1 0 0 0 0 0 0 0 0 0 0 0
17 17 17 16 14 11 9 7 7 8 8 7 7 7 7 7 7 6 4 4 4 6 5 3 3 4 5 4 3 1 1 2 1 0 0 0 0 0 0 0 0 0 0
19 19 19 18 16 14 11 9 8 8 8 7 6 6 7 7 8 7 5 5 6 7 7 4 3 4 5 4 4 3 2 2 2 0 0 0 0 0 0 0 0 0 0
18 18 18 18 18 17 15 13 12 12 10 9 9 9 8 9 9 9 8 6 6 6 7 5 4 5 6 4 4 5 5 5 3 1 0 0 0 0 0 0 0 0 0
14 14 13 14 16 16 16 16 17 16 15 14 14 12 10 9 9 9 8 6 5 5 5 5 4 5 5 5 5 6 7 8 6 2 1 1 0 0 0 0 0 0 0
9 9 9 9 11 12 12 14 16 17 18 18 16 13 10 7 6 5 4 4 5 5 5 4 3 4 5 5 5 7 8 9 7 4 2 1 0 0 0 0 0 0 0
9 9 7 7 7 7 7 7 9 12 15 17 15 11 8 6 5 3 2 1 3 4 4 3 3 3 3 4 5 6 7 7 6 5 3 1 0 0 0 0 0 0 0
14 14 11 9 7 5 3 2 3 7 11 13 13 11 8 7 7 5 3 1 1 1 2 2 2 1 2 4 6 6 5 5 6 5 4 2 1 1 1 0 0 0 0
20 19 16 12 8 5 3 1 2 5 9 11 11 10 8 7 7 7 5 3 1 1 1 1 0 0 1 4 6 5 4 3 5 6 5 4 2 1 0 0 0 0 0
22 21 17 12 8 6 3 1 1 5 9 10 11 10 8 6 6 5 4 3 3 2 1 0 0 0 0 1 3 4 4 3 4 6 6 4 2 1 0 0 0 0 0
22 19 14 9 8 7 4 1 2 6 9 10 10 9 7 5 5 4 3 3 3 3 3 1 0 0 0 0 1 3 5 4 4 6 6 4 2 0 0 0 0 0 0

GEFSMA_con_probscp_234.txt.gz
Probability
0 1 1 1 2 2 1 1 1 1 1 2 2 1 0 0 0 2 4 6 9 9 7 6 4 2 1 0 0 0 0 0 0 0 0 0 0 0 0 0 0 0 0
1 1 1 1 1 1 1 1 2 3 2 2 1 0 0 0 1 2 4 6 7 7 7 5 3 1 0 0 0 0 0 0 0 0 0 0 0 0 0 0 0 0 0
1 1 1 0 0 1 2 3 5 6 4 2 1 0 0 1 2 3 5 6 5 4 5 4 3 2 1 0 0 1 1 0 0 1 0 0 0 0 0 0 0 0 0
1 1 0 0 0 1 2 3 5 7 5 2 1 0 1 3 3 3 5 5 4 3 2 3 3 3 2 1 1 2 2 1 1 0 0 0 0 0 0 0 0 0 0
3 2 1 1 1 1 2 2 3 5 4 3 1 0 1 3 4 4 4 4 3 3 3 2 3 4 4 4 4 5 6 5 4 3 3 2 1 1 1 1 1 1 1
6 4 3 3 3 2 2 2 3 3 3 3 2 1 2 4 6 5 4 3 3 4 4 5 5 6 6 6 7 9 10 10 9 9 8 5 3 2 2 2 2 2 2
8 7 6 5 4 3 2 2 2 2 3 4 3 2 2 4 5 5 4 4 4 5 6 10 12 11 9 9 9 11 12 13 13 12 11 8 5 4 3 2 3 3 3
12 11 10 8 5 3 2 2 2 2 3 4 4 3 2 3 3 2 2 3 4 5 8 12 16 15 13 11 10 10 12 14 14 11 10 9 7 6 5 4 3 2 2
15 14 12 10 8 5 4 3 4 3 3 3 3 3 3 3 3 1 1 2 3 4 6 9 11 13 13 12 11 10 11 14 15 12 10 9 8 8 7 5 4 3 2
15 14 12 11 10 9 6 5 5 4 3 2 2 4 4 3 2 2 2 2 3 4 6 6 6 8 10 12 12 11 11 13 14 14 12 10 9 9 7 5 4 4 4
18 17 14 12 11 11 9 7 6 5 3 1 2 4 4 4 3 3 4 4 4 4 5 5 4 7 12 14 13 11 9 10 11 12 11 10 9 8 6 5 3 4 5
20 19 15 12 11 11 10 8 6 5 3 2 3 4 4 5 5 5 5 5 4 3 3 2 3 9 15 16 13 9 7 6 5 6 7 7 7 6 5 5 4 5 6
19 18 16 14 12 11 10 9 9 8 7 7 6 7 6 6 6 5 4 4 4 3 1 0 3 8 14 15 12 7 5 3 2 2 3 4 4 3 3 3 4 4 4
16 17 18 17 15 14 14 13 13 13 13 12 9 9 8 6 6 6 6 4 4 3 1 0 2 7 10 11 8 5 4 2 1 0 0 1 1 1 1 1 1 1 1
16 17 19 20 20 19 19 19 18 17 17 16 12 11 9 8 7 8 8 7 6 4 3 2 2 4 7 7 6 5 4 3 1 0 0 0 0 0 0 0 0 0 0
17 17 19 20 22 22 22 21 20 19 19 18 16 13 11 9 8 9 10 10 9 6 5 3 2 1 3 4 5 6 6 3 1 0 0 0 0 0 0 0 0 0 0
15 16 17 19 20 21 21 21 20 19 18 17 16 14 12 10 9 9 9 10 9 6 4 3 2 1 1 2 4 5 5 3 1 0 0 0 0 0 0 0 0 0 0
11 13 15 16 17 18 20 20 20 19 18 17 17 16 14 13 11 10 9 8 7 5 4 3 2 2 2 2 3 3 3 2 1 0 0 0 0 0 0 0 0 0 0
10 11 14 15 15 15 17 19 21 21 21 21 20 19 17 15 13 11 9 8 6 5 5 3 3 3 3 3 2 2 2 3 2 1 0 0 0 0 0 0 0 0 0
10 11 13 15 14 13 14 17 20 21 21 20 19 18 17 14 12 10 10 9 8 7 6 5 4 4 4 3 2 1 2 3 3 1 0 0 0 0 0 0 0 0 0
12 13 13 14 13 11 9 12 16 17 16 15 15 14 13 10 9 8 8 9 10 10 9 8 7 6 5 4 3 1 1 2 3 2 1 0 0 0 0 0 0 0 0
17 17 16 15 13 9 6 8 11 13 11 10 11 10 7 6 7 7 7 7 7 9 9 10 9 8 6 6 4 1 0 1 3 3 2 1 0 0 0 0 0 0 0
25 24 22 19 16 10 5 4 7 9 9 8 9 9 7 5 6 8 8 6 6 5 5 8 10 9 8 7 6 3 1 2 3 3 3 2 1 0 0 0 0 0 0
32 30 26 24 21 14 5 2 4 8 9 9 9 10 9 8 7 8 9 9 9 7 3 4 7 8 7 7 7 5 4 4 4 4 3 3 2 1 0 0 0 0 0
34 32 29 28 25 17 7 1 3 8 9 8 9 10 10 8 6 6 9 12 14 11 5 2 2 3 3 4 5 5 6 6 5 4 3 3 3 2 1 0 0 0 0
33 32 31 30 27 18 8 2 3 7 9 8 8 9 9 7 6 5 8 13 16 14 8 2 0 0 0 1 3 5 6 6 5 4 3 3 3 3 2 1 0 0 0

GEFSMA_con_probscp_240.txt.gz
Probability
0 0 0 0 0 0 0 0 0 0 0 0 0 0 0 0 0 0 0 2 3 2 2 3 4 4 4 2 1 1 0 0 0 0 1 1 1 0 0 1 0 0 0
0 0 0 0 0 0 0 0 0 0 0 0 0 0 0 0 0 1 1 2 3 1 1 3 5 6 5 3 1 1 1 0 0 0 0 0 0 0 0 1 1 0 0
0 0 0 0 0 0 0 0 0 0 0 0 0 0 0 0 0 1 1 1 1 0 1 3 6 7 6 4 2 1 2 1 0 0 0 0 0 0 0 1 1 1 1
0 0 0 0 0 0 0 0 0 0 0 0 0 0 0 0 0 1 1 0 0 0 0 2 6 7 6 4 2 2 2 2 1 0 0 0 0 0 0 0 1 2 2
0 0 0 0 0 0 0 0 0 0 0 0 0 0 0 0 0 0 0 0 0 0 0 2 4 6 7 7 6 4 3 2 1 1 1 0 0 0 0 0 0 1 2
0 0 0 0 0 0 0 0 0 0 0 0 0 0 0 0 0 0 0 0 0 0 0 0 2 4 7 9 9 8 6 4 3 2 2 1 1 1 0 0 0 0 1
0 0 0 0 0 0 0 0 0 0 0 0 0 0 0 0 0 0 0 0 0 0 0 0 0 1 3 6 9 11 10 8 6 5 5 4 4 2 1 1 0 0 0
2 2 1 0 0 0 0 0 0 0 0 0 0 0 0 0 0 0 0 0 0 0 0 0 0 0 0 2 5 9 11 11 10 9 8 7 6 4 3 2 1 1 0
5 3 1 0 0 0 0 0 0 0 0 0 0 0 0 0 0 0 0 0 0 0 0 0 0 0 0 0 1 4 8 10 10 10 9 8 6 5 4 3 3 2 1
6 5 3 1 1 0 0 0 0 0 0 0 0 0 0 0 0 0 0 0 0 0 0 0 0 0 0 0 0 1 3 6 7 7 7 6 5 4 4 4 4 4 3
6 6 5 3 2 1 0 0 0 0 0 0 0 0 0 0 0 0 0 0 0 0 0 0 0 0 0 0 0 1 1 2 3 3 3 3 3 4 4 4 5 5 4
6 6 5 4 3 2 1 0 0 0 0 0 1 1 0 0 0 0 0 0 0 0 0 0 0 0 0 0 0 0 1 1 1 1 1 1 2 3 4 4 4 4 4
7 7 6 4 3 3 2 1 1 1 1 1 2 2 1 1 1 0 0 0 0 0 0 0 0 0 0 0 0 0 0 0 0 0 0 0 1 2 2 2 2 2 2
7 7 7 5 4 3 4 3 3 3 2 3 3 3 3 2 2 1 0 0 0 0 0 0 0 0 0 0 0 0 0 0 0 0 0 0 1 1 1 1 0 0 0
4 4 4 4 3 4 4 5 5 4 3 3 3 3 3 3 3 1 1 1 0 0 0 0 0 0 0 0 0 0 0 0 0 0 0 0 0 0 0 0 0 0 0
1 1 2 3 4 4 5 5 6 5 4 3 3 3 3 4 3 3 2 2 1 0 0 0 0 0 0 0 0 0 0 0 0 0 0 0 0 0 0 0 0 0 0
2 3 4 5 6 6 6 6 6 6 4 3 3 2 3 4 4 3 3 3 2 0 0 0 0 0 0 0 0 0 0 0 0 0 0 0 0 0 0 0 0 0 0
2 3 4 5 6 6 6 6 6 6 5 3 1 1 1 2 3 2 2 2 1 0 0 0 0 0 0 0 0 0 0 0 0 0 0 0 0 0 0 0 0 0 0
1 1 2 2 4 5 6 6 6 6 4 2 0 0 0 1 1 1 1 1 0 0 0 0 0 0 0 0 0 0 0 0 0 0 0 0 0 0 0 0 0 0 0
0 1 1 1 2 4 4 4 4 4 3 1 0 0 0 0 0 0 0 0 0 0 0 0 0 0 0 0 0 0 0 0 0 0 0 0 0 0 0 0 0 0 0
2 3 3 3 3 3 3 3 3 3 3 1 0 0 0 0 0 0 0 0 0 0 1 1 0 0 0 0 0 0 0 0 0 0 0 0 0 0 0 0 0 0 0
6 6 6 5 4 3 3 3 3 3 3 1 0 0 1 1 0 0 0 0 0 0 1 1 1 1 1 0 0 0 0 0 0 0 0 0 0 0 0 0 0 0 0
9 9 9 8 5 3 3 2 3 3 2 1 0 1 2 2 1 1 1 1 0 0 1 1 1 1 2 1 0 0 0 0 0 0 0 0 0 0 0 0 0 0 0
11 11 12 10 7 4 3 2 2 3 3 1 0 1 2 3 3 2 2 2 1 0 0 0 0 1 2 1 0 0 0 0 0 0 0 0 0 0 0 0 0 0 0
15 15 15 13 10 7 5 2 2 4 4 2 1 1 3 4 4 3 3 3 2 1 0 0 0 0 1 1 0 0 0 0 0 0 0 0 0 0 0 0 0 0 0
17 18 17 14 11 9 6 3 2 3 4 3 2 2 3 5 4 3 3 3 2 1 0 0 0 0 0 0 0 0 0 0 0 0 1 1 1 0 0 0 0 0 0

GEFSMA_con_probscp_246.txt.gz
Probability
3 2 1 0 0 0 0 0 0 0 0 0 0 0 0 0 1 1 1 3 4 3 2 1 0 0 0 0 0 0 0 0 0 0 0 0 0 0 0 0 0 0 0
2 2 1 0 0 0 0 0 0 0 0 0 0 0 0 0 1 1 2 3 4 3 2 1 0 0 0 0 0 0 0 0 0 0 0 0 0 0 0 0 0 0 0
1 1 0 0 0 0 0 0 0 0 0 0 0 0 0 0 1 2 2 2 2 2 1 1 1 1 1 2 1 1 1 0 0 0 0 0 0 0 0 1 0 0 0
0 0 0 0 0 0 0 0 0 0 0 0 0 0 0 0 0 1 1 1 1 1 0 0 1 2 2 3 3 2 2 1 1 0 0 0 0 0 0 0 0 0 0
0 0 0 0 0 0 0 0 0 0 0 0 0 0 0 0 0 0 0 0 0 0 0 0 1 1 2 2 3 3 3 3 2 1 1 0 0 0 0 0 0 0 0
0 0 0 0 0 0 0 0 0 0 0 0 0 0 0 0 0 0 0 0 0 0 0 0 0 0 1 1 1 2 3 3 3 3 2 1 0 0 0 0 0 0 0
0 0 0 0 0 0 0 0 0 0 0 0 0 0 0 0 0 0 0 0 0 0 0 0 0 0 0 0 0 1 2 2 3 3 3 3 2 1 1 1 1 0 0
0 0 0 0 0 0 0 0 0 0 0 0 0 0 0 0 0 0 0 0 0 0 0 0 0 0 0 0 0 0 1 1 2 2 3 4 5 4 3 2 2 1 0
0 0 0 0 0 0 0 0 0 0 0 0 0 0 0 0 0 0 0 0 0 0 0 0 0 0 0 0 0 0 0 0 1 1 2 3 5 5 4 4 4 3 1
0 0 0 0 0 0 0 0 0 0 0 0 0 0 0 0 0 0 0 0 0 0 0 0 0 0 0 0 0 0 0 0 1 1 1 1 3 3 3 4 5 4 2
0 0 0 0 0 0 0 0 0 0 0 0 0 0 0 0 0 0 0 0 0 0 0 0 0 0 0 0 0 0 0 0 1 1 1 0 1 1 1 3 4 4 3
0 0 0 0 0 0 0 0 0 0 0 0 0 0 0 0 0 0 0 0 0 0 0 0 0 0 0 0 0 0 0 0 0 0 0 0 1 1 1 2 3 3 3
0 0 0 0 0 0 0 0 0 0 1 1 1 1 1 1 1 1 1 1 1 1 0 0 0 0 0 0 0 0 0 0 0 0 0 0 0 0 1 3 3 2 2
0 0 1 1 1 1 1 1 0 0 1 2 2 2 2 2 2 2 2 2 2 2 1 0 0 0 0 0 0 0 0 0 0 0 0 0 0 0 0 1 2 1 1
0 1 2 2 2 2 2 2 1 1 1 1 2 2 2 2 3 3 3 3 3 3 2 1 0 0 0 0 0 0 0 0 0 0 0 0 0 0 0 0 0 0 0
0 1 2 3 3 3 3 3 3 2 1 0 1 1 1 1 1 2 3 3 3 3 3 2 1 0 0 0 0 0 0 0 0 0 0 0 0 0 0 0 0 0 0
1 1 2 3 3 3 3 3 3 3 2 1 0 0 0 0 0 1 2 2 1 2 2 1 1 0 0 0 0 0 0 0 0 0 0 0 0 0 0 0 0 0 0
2 2 3 3 3 3 3 3 3 3 3 3 2 1 1 0 0 0 1 1 1 1 1 0 0 0 0 0 0 0 0 0 0 0 0 0 0 0 0 0 0 0 0
4 4 4 4 3 3 3 3 3 3 4 5 5 4 2 1 0 0 0 1 2 2 1 0 0 0 0 0 0 0 0 0 0 0 0 0 0 0 0 0 0 0 0
5 5 4 4 4 3 3 3 3 4 5 6 7 6 4 2 1 0 0 1 2 3 2 0 0 0 0 0 0 0 0 0 0 0 0 0 0 0 0 0 0 0 0
5 4 3 3 3 3 3 3 4 5 6 7 7 6 3 2 1 0 0 1 2 2 1 0 0 0 0 0 0 0 0 0 0 0 0 0 0 0 0 0 0 0 0
4 3 2 1 1 3 3 3 3 4 5 6 6 4 2 1 0 0 0 0 1 1 0 0 0 0 0 0 0 0 0 0 0 0 0 0 0 0 0 0 0 0 0
7 5 4 2 2 2 2 2 2 3 4 5 5 4 2 1 1 1 1 1 0 0 0 0 0 1 1 1 0 0 1 1 0 0 0 0 0 0 0 0 0 0 0
11 10 8 7 5 3 1 1 1 2 3 4 4 4 4 4 3 2 2 2 1 1 0 0 0 1 2 2 1 0 1 1 0 0 0 0 0 0 0 0 0 0 0
13 13 12 11 8 5 2 0 1 3 5 5 5 5 4 4 3 2 3 3 3 2 1 1 0 1 1 1 0 0 1 1 0 0 0 0 0 0 0 0 0 0 0
13 14 13 12 10 7 3 1 1 4 6 5 5 5 3 2 2 2 2 3 3 3 2 2 1 0 0 0 0 0 0 0 0 0 0 0 0 0 0 0 0 0 0

GEFSMA_con_probscp_252.txt.gz
Probability
3 3 3 3 2 1 0 0 0 1 2 1 0 0 0 0 0 1 2 4 6 6 4 3 1 0 0 0 0 0 0 0 0 0 0 0 0 0 0 0 0 0 0
3 3 3 3 2 1 0 0 1 2 2 1 0 0 0 0 0 0 2 5 7 6 3 2 0 0 0 0 1 1 1 1 1 0 0 0 0 0 0 0 0 0 0
3 3 3 3 3 1 0 1 2 2 1 0 0 0 0 0 0 1 2 4 5 4 3 1 1 1 1 1 1 2 2 2 2 1 1 0 0 0 0 0 0 0 0
3 3 3 3 3 2 1 2 2 1 0 0 0 0 0 0 0 1 3 3 2 2 3 3 2 2 1 0 1 2 3 3 3 3 2 1 0 0 0 0 0 0 0
3 3 3 3 3 3 2 1 1 0 0 0 0 0 0 0 0 1 2 2 1 1 2 4 3 3 1 0 0 1 2 3 3 3 3 2 1 0 0 0 0 0 0
2 3 3 3 2 2 2 1 0 0 0 0 0 0 0 0 0 1 1 1 0 0 1 3 3 2 1 0 0 0 1 2 2 2 2 2 2 1 0 0 0 0 0
1 1 2 1 1 1 1 0 0 0 0 0 0 0 0 0 0 0 0 0 0 0 1 2 2 2 1 0 0 0 0 1 1 1 1 2 2 1 1 1 1 0 0
0 0 0 0 0 0 0 0 0 0 0 0 0 1 1 1 0 0 0 0 0 0 0 1 1 1 0 0 0 0 0 0 0 0 0 1 1 2 2 3 2 1 0
0 0 0 0 0 1 1 0 0 0 0 0 0 1 1 1 0 0 0 0 0 0 0 0 0 0 0 0 0 0 1 1 0 1 1 1 1 1 2 3 3 3 2
0 0 1 1 2 2 2 1 0 0 0 0 0 1 1 1 1 1 0 0 1 1 1 1 0 1 2 1 1 1 2 2 1 2 2 2 1 0 1 2 3 3 3
1 1 1 3 3 4 4 3 2 1 1 1 1 2 3 3 3 3 1 1 2 3 3 2 2 2 3 3 2 3 3 3 2 2 2 3 1 0 1 2 2 3 4
2 2 2 3 4 4 4 5 4 3 3 3 3 5 6 6 6 5 4 3 3 4 5 4 4 4 3 3 4 3 3 3 2 1 1 1 0 1 2 3 3 3 3
3 3 2 2 3 3 4 4 4 3 4 4 5 6 6 6 7 6 5 5 3 3 4 5 5 5 4 4 4 4 3 3 2 1 0 0 0 1 2 3 3 2 2
4 3 2 1 3 3 3 4 4 3 3 3 4 4 4 4 4 4 4 4 3 2 2 4 5 6 5 4 4 4 4 3 1 0 0 0 0 0 1 1 1 1 1
5 3 1 2 3 4 4 5 5 4 3 3 4 4 3 2 1 1 1 2 2 2 1 2 4 5 6 6 5 5 5 3 1 0 0 0 0 0 0 0 0 0 0
7 5 3 3 4 4 4 6 7 6 5 5 6 5 3 1 1 0 0 1 2 2 1 2 4 5 7 8 7 7 6 4 2 0 0 0 0 0 0 0 0 0 0
7 6 4 4 4 4 5 7 8 7 7 7 6 5 4 4 4 3 3 3 3 3 2 3 4 5 7 9 8 7 6 5 3 1 0 0 0 0 0 0 0 0 0
8 8 7 6 6 6 6 7 7 7 7 7 5 5 6 7 8 7 7 6 5 5 5 4 3 5 7 8 8 7 5 4 3 1 0 0 0 0 0 0 0 0 0
13 12 10 8 8 8 8 7 7 7 7 7 7 7 8 9 10 10 9 7 6 6 6 4 3 5 7 7 6 6 5 3 2 0 0 0 0 0 0 0 0 0 0
19 17 15 11 10 11 11 10 9 9 9 9 10 11 11 11 11 12 11 8 7 7 6 5 5 6 8 9 7 6 4 3 2 1 1 1 0 0 0 0 0 0 0
19 19 17 14 13 13 13 11 10 10 12 13 14 15 15 13 12 11 9 8 7 7 7 7 6 7 9 10 8 6 4 4 4 5 4 2 1 1 1 1 0 0 0
19 19 19 18 18 17 13 9 8 11 14 16 18 18 17 15 13 10 6 4 4 6 7 8 7 7 9 10 9 7 6 6 6 8 7 5 3 3 2 2 1 0 0
23 23 23 23 22 19 12 6 5 10 16 19 20 21 21 19 16 12 8 5 4 5 6 7 8 8 9 10 10 10 9 8 9 10 9 8 6 4 3 2 1 0 0
27 27 26 24 24 20 11 4 4 11 18 20 21 22 24 22 19 15 13 11 10 8 6 5 6 7 8 9 12 13 12 10 10 11 10 9 8 6 5 3 1 0 0
29 27 25 24 25 22 12 3 4 13 18 19 19 20 22 20 16 13 13 14 13 12 9 7 5 5 5 6 10 13 13 11 11 11 10 9 9 8 7 5 3 1 0
28 27 25 25 26 24 14 4 4 13 17 17 17 17 17 16 12 9 11 13 13 12 12 10 6 3 3 4 7 12 13 12 11 10 11 10 10 9 8 7 5 2 1